Theta_e
315 317 318 318 317 319 319 317 316 315 315 315 313 311 309 307 306 305 304 303 302 301 300 299 299 299 298 298 298 298 299 298 298 298 297 297 297 296 296 296 296 296 295
312 313 314 313 314 316 312 309 307 307 305 304 303 302 301 300 298 297 297 296 296 295 295 294 294 294 293 293 293 292 293 294 294 294 294 293 293 293 293 293 293 294 293
309 311 310 309 309 305 302 301 300 300 299 298 297 297 296 295 295 294 294 294 294 293 293 293 292 292 292 292 291 290 290 290 290 290 290 290 291 291 291 291 291 291 291
303 302 301 300 300 299 298 297 297 296 296 295 294 294 294 294 294 294 293 293 292 292 292 291 291 291 290 290 289 288 288 288 288 288 288 288 289 289 289 289 289 289 289
299 298 297 296 296 295 295 295 294 294 294 293 293 293 293 293 292 292 291 291 290 290 290 290 290 289 288 287 287 287 287 287 287 287 287 287 287 288 288 288 288 288 288
297 295 295 294 294 294 294 293 293 293 293 293 292 291 290 290 289 289 289 289 289 289 289 288 288 287 286 286 286 286 286 287 287 287 287 287 287 287 287 287 288 288 288
294 293 293 293 293 293 293 292 292 291 290 289 289 289 288 288 289 289 289 289 289 288 287 286 285 285 285 285 285 285 285 285 286 286 286 286 286 286 287 287 288 288 288
293 292 292 292 292 291 291 290 289 289 288 288 288 288 289 289 289 288 288 288 287 285 285 285 285 285 285 285 285 285 285 285 286 286 285 286 286 287 287 286 285 285 286
291 291 291 291 290 289 288 288 288 288 288 288 288 288 288 288 287 287 286 285 285 285 285 285 285 285 285 285 285 286 286 286 286 285 285 286 286 285 285 285 285 285 285
290 290 289 288 288 288 287 287 287 287 287 286 287 287 286 286 285 285 286 285 285 285 285 285 285 285 285 285 286 286 286 286 285 285 284 283 283 283 284 284 284 282 283
289 287 287 287 287 287 287 286 286 286 286 285 285 285 285 285 284 284 285 285 285 285 285 284 285 285 285 285 286 286 286 285 284 283 283 283 283 283 283 283 281 280 280
286 285 285 285 285 285 284 284 283 284 284 284 284 284 284 283 282 282 283 284 285 284 284 284 284 285 285 285 285 286 285 284 283 283 283 283 283 283 282 282 281 280 280
284 284 284 284 283 283 283 284 284 283 283 282 283 282 282 281 281 281 282 282 283 284 283 284 284 284 284 284 284 285 285 283 283 282 283 283 283 282 282 281 280 279 279
284 283 282 283 282 282 283 282 282 282 281 280 279 278 279 279 280 281 281 282 282 283 283 283 283 282 282 283 284 285 284 283 282 282 282 282 282 281 281 280 279 278 278
282 282 281 281 281 282 282 281 280 280 280 279 279 278 278 279 279 281 282 282 282 282 282 281 280 280 281 281 282 283 283 282 282 281 281 281 281 281 280 280 279 278 278
281 280 280 280 280 280 280 280 280 279 279 278 278 278 278 279 280 279 280 280 280 279 278 277 277 276 275 275 275 276 277 278 279 280 280 279 279 279 279 279 279 278 277
281 280 280 279 279 279 279 279 279 278 279 278 276 276 278 278 277 277 278 277 276 276 276 274 274 272 272 272 272 272 273 274 275 277 277 277 277 278 278 279 279 278 278
280 280 280 279 278 278 278 278 277 278 278 277 276 275 275 274 275 274 274 274 275 274 273 272 271 271 270 270 270 271 271 272 272 273 274 274 275 275 276 277 279 278 278
279 279 278 277 277 276 275 275 275 274 273 273 274 274 273 273 273 272 272 271 270 270 270 270 269 269 269 269 269 269 269 270 270 271 271 272 272 273 274 275 276 277 277
277 277 277 276 275 275 275 274 273 272 272 271 271 271 272 272 272 272 271 271 270 269 269 268 268 268 268 267 268 268 268 268 268 269 269 270 271 271 271 273 274 275 276
277 276 275 275 274 274 274 273 272 271 271 270 270 270 271 271 270 269 269 269 268 268 268 268 268 267 267 267 267 267 267 267 267 267 268 268 269 269 270 271 272 273 274
275 275 274 274 273 272 272 271 271 270 270 269 269 269 269 269 268 269 269 268 268 267 267 267 267 267 267 267 266 266 266 266 267 266 267 267 267 268 268 269 270 271 271
273 272 272 272 272 271 270 270 269 268 268 268 268 268 268 268 268 268 268 268 267 267 267 266 266 267 267 266 266 266 266 266 266 266 265 266 266 266 266 266 267 268 269
271 271 271 271 270 269 269 268 268 267 267 267 267 267 267 267 267 267 267 267 267 266 266 266 265 265 265 265 265 265 265 264 264 264 264 264 265 265 265 266 266 266 267
269 269 269 269 268 268 267 267 267 267 266 266 266 266 266 266 267 267 266 266 266 266 266 265 264 264 264 264 264 264 264 264 264 264 264 263 264 265 265 265 265 265 265
268 268 268 267 266 266 266 266 266 266 266 266 265 265 265 265 266 265 265 265 264 265 265 265 264 264 264 264 264 264 264 264 264 264 264 264 264 264 264 264 264 264 264
Wind_Speed
15 17 17 17 17 15 12 10 11 11 10 9 8 8 7 5 4 3 2 2 3 4 5 6 8 10 12 13 13 13 15 18 20 27 26 26 27 29 30 30 32 33 34
17 18 19 18 17 17 16 14 13 13 12 12 11 10 10 9 8 7 6 5 5 5 7 8 10 11 12 13 14 13 14 15 19 26 26 25 26 27 30 32 30 31 33
18 19 19 18 18 19 18 17 15 16 16 15 13 12 11 9 7 7 6 6 6 7 9 11 12 14 15 16 16 15 16 18 19 23 28 25 25 26 30 30 31 34 30
21 22 23 22 22 21 21 18 17 16 15 14 13 11 8 7 6 5 5 6 7 8 9 11 13 14 15 16 15 15 15 20 20 22 24 26 24 25 27 29 33 28 34
23 23 23 22 22 21 21 18 16 14 13 11 9 7 6 4 4 5 6 7 8 9 10 12 12 12 10 10 13 16 17 20 21 22 23 26 26 25 25 28 30 34 34
24 24 23 22 21 20 19 17 14 12 10 8 6 5 4 4 4 6 8 9 11 13 15 14 13 12 13 12 13 14 16 19 21 21 22 21 27 25 28 25 28 28 18
25 23 22 20 19 18 16 14 11 9 7 6 5 5 5 5 7 8 9 9 10 10 11 13 14 14 15 18 18 17 18 19 19 23 27 24 29 27 31 33 28 27 30
24 22 20 18 17 15 13 11 9 7 6 5 5 6 6 7 7 8 9 10 10 10 11 12 13 16 17 19 21 22 23 22 24 23 25 30 31 32 28 30 33 33 32
24 22 20 17 16 13 11 9 8 7 6 5 5 6 6 7 8 9 9 10 10 11 11 11 14 16 19 19 22 26 26 24 26 24 25 25 26 27 25 28 25 23 25
24 21 18 15 14 12 10 9 8 6 5 4 5 5 5 5 7 8 10 13 14 14 13 14 14 17 19 20 22 26 26 25 28 26 25 26 24 24 21 19 21 24 22
22 19 16 14 13 11 10 8 6 5 4 3 3 3 3 4 6 6 8 10 12 16 17 22 19 21 21 22 22 24 23 25 26 27 26 25 24 22 21 24 22 21 21
20 17 14 13 11 9 7 6 5 4 3 2 3 4 5 6 9 8 9 10 12 16 22 24 22 21 23 23 22 21 21 21 26 26 23 21 21 21 25 25 24 23 19
19 16 15 13 10 7 6 6 5 4 3 4 6 7 9 11 11 12 13 14 14 17 21 21 21 23 24 26 23 17 18 20 22 21 21 20 21 26 25 25 28 22 18
20 17 14 11 10 8 7 5 4 4 4 6 7 7 10 12 15 16 19 20 20 21 22 24 22 25 23 21 20 19 18 18 20 22 22 25 26 25 24 23 25 20 18
18 17 15 13 11 10 8 6 4 3 2 3 4 5 8 12 14 15 16 16 18 19 21 23 21 20 20 21 19 18 17 20 21 20 21 22 22 22 22 22 20 16 14
20 18 16 14 12 10 8 7 5 4 3 3 2 2 4 5 8 12 13 13 11 16 19 18 20 19 20 21 22 23 23 22 21 22 21 22 21 23 23 22 17 14 15
20 19 17 14 12 11 10 10 9 5 6 4 1 2 2 4 8 9 9 12 13 16 14 15 16 16 19 21 22 22 22 21 19 18 21 21 20 20 20 20 17 15 15
19 17 16 16 15 13 10 8 6 5 5 3 2 1 2 5 5 7 9 14 13 13 13 15 15 15 16 18 20 21 22 20 19 19 19 19 18 18 18 18 16 15 14
19 18 17 16 14 12 11 9 7 5 4 3 3 3 4 3 4 10 13 13 13 13 14 14 14 15 16 16 17 18 18 17 18 18 17 16 17 18 18 17 16 14 12
19 18 17 16 15 14 12 11 10 8 7 5 5 5 4 8 10 12 12 12 12 12 13 14 14 14 14 15 16 17 17 16 17 17 17 16 16 16 18 18 17 16 13
20 20 19 18 17 16 15 13 11 9 8 8 7 5 5 9 10 10 10 10 11 12 12 13 14 14 14 14 15 15 15 15 15 17 17 17 16 17 17 16 17 15 13
23 22 22 21 19 18 15 13 11 11 11 11 9 7 6 8 8 8 9 10 11 11 11 13 14 14 14 15 15 16 17 16 16 17 17 17 17 17 17 17 17 16 15
25 24 23 22 20 17 16 15 14 13 13 12 11 10 10 9 10 11 11 12 13 13 12 13 15 15 13 14 14 15 17 17 16 16 17 17 17 17 17 17 16 15 14
26 25 24 21 19 18 17 16 15 14 13 13 12 12 12 12 13 13 14 14 15 14 14 13 13 14 14 15 14 14 16 18 18 17 17 18 18 17 17 16 14 13 12
25 24 23 21 19 19 18 17 16 15 15 15 14 15 15 15 15 16 15 15 15 15 15 15 15 16 17 18 18 19 19 20 21 20 19 18 19 18 18 17 16 14 13
25 23 22 20 19 19 19 18 18 17 17 17 16 16 17 17 18 17 17 17 18 18 18 18 18 19 20 21 21 21 23 23 23 20 19 19 21 22 20 20 18 16 14
Wind_Direction
141 141 144 144 149 148 183 172 161 156 153 151 149 148 142 133 127 134 110 45 12 357 339 326 321 318 319 311 299 296 294 293 289 295 297 302 302 305 303 302 302 300 303
143 140 139 139 139 140 147 146 145 143 138 135 131 128 121 112 101 92 80 63 40 14 358 346 337 327 327 323 318 312 306 301 299 298 305 310 311 310 307 308 306 304 303
151 144 142 140 141 138 135 135 135 133 127 124 122 116 110 102 89 69 52 37 19 360 347 339 334 329 325 322 320 317 314 310 306 301 302 307 310 315 313 311 311 311 309
147 143 139 136 136 135 131 130 129 127 123 118 111 106 98 83 61 42 28 13 359 348 340 333 329 327 322 320 321 321 318 315 311 307 305 310 315 319 317 316 314 312 310
146 141 136 134 135 134 131 130 127 125 119 112 104 96 82 57 24 5 354 348 340 337 338 332 329 329 327 326 320 320 320 315 310 306 306 308 311 317 315 312 303 309 308
150 143 140 139 140 135 133 131 129 122 112 103 93 75 49 20 357 356 357 353 349 341 340 339 339 339 335 335 328 321 317 313 307 303 300 299 302 305 307 305 303 305 309
151 145 144 145 142 136 133 131 122 113 103 88 69 48 34 20 4 352 342 346 344 344 346 350 346 342 338 333 327 320 315 312 305 302 297 297 299 303 303 299 297 300 301
152 147 149 151 144 139 136 132 123 115 104 90 70 47 32 14 4 357 357 358 360 355 352 345 339 335 333 327 323 317 314 313 314 310 305 304 302 306 311 309 308 303 298
153 156 158 156 151 149 143 132 124 113 100 82 59 38 24 16 15 17 13 7 357 344 336 334 329 327 327 323 316 316 312 311 320 312 308 303 304 307 308 307 305 302 305
162 160 158 157 153 149 142 138 130 122 99 66 40 29 28 30 25 27 3 354 346 339 332 325 319 317 320 320 315 316 311 314 319 319 315 314 317 317 317 315 316 311 307
165 162 161 160 159 155 152 149 132 117 97 76 67 46 37 4 358 347 350 335 330 327 326 324 324 324 321 319 312 307 309 312 313 315 314 317 320 321 318 314 315 307 299
167 165 164 163 156 153 149 135 122 110 121 103 68 70 46 23 20 17 356 342 330 325 325 325 323 320 315 313 307 304 309 311 315 316 312 310 310 315 318 317 316 313 303
168 167 164 162 163 160 153 155 154 136 104 58 36 28 18 10 12 9 0 348 337 323 321 321 316 316 315 311 310 302 303 316 319 312 308 308 312 319 318 318 318 319 313
171 169 168 171 167 164 163 152 133 119 86 48 35 20 358 2 357 358 348 339 332 327 325 319 320 316 320 320 318 310 303 309 316 311 309 312 317 319 318 321 322 328 327
175 173 174 177 177 171 167 166 153 135 66 0 22 10 352 352 353 339 330 328 323 320 317 317 325 332 332 334 333 324 315 312 309 309 312 312 312 316 315 325 328 328 322
180 182 184 183 179 176 176 175 176 175 181 133 124 359 351 349 332 325 321 323 323 318 323 326 331 335 333 330 328 322 317 315 314 313 310 314 315 316 319 324 331 325 319
191 187 187 185 183 186 181 179 179 174 181 187 175 335 20 318 320 323 322 320 317 323 337 336 336 335 333 331 329 327 323 322 322 323 316 317 317 318 322 322 324 323 318
194 195 195 193 192 192 192 195 189 182 184 187 202 14 229 326 323 336 341 335 341 343 342 339 335 332 330 330 330 330 329 330 326 325 324 326 329 329 328 329 325 319 313
199 199 197 196 198 198 197 196 201 201 203 237 251 234 276 331 319 332 339 349 350 347 341 335 332 329 327 328 328 329 331 332 330 333 335 334 335 337 333 332 332 325 311
202 201 202 205 204 203 205 207 209 212 225 236 255 289 324 326 319 331 336 334 333 333 332 328 328 325 324 325 328 330 331 333 334 336 337 338 338 341 337 336 335 334 327
207 206 207 210 212 212 215 217 218 226 237 241 259 284 316 294 305 320 326 326 322 323 323 320 319 320 321 323 325 325 326 328 330 332 334 336 339 339 340 339 336 334 333
213 212 212 214 214 217 222 224 228 237 241 251 262 272 278 285 295 301 305 308 308 309 312 308 306 307 312 315 317 316 315 319 323 325 326 329 332 333 333 335 336 338 335
212 211 213 216 218 220 223 228 233 242 246 256 266 269 275 281 285 288 292 295 296 297 298 298 301 303 306 307 307 307 308 313 316 316 317 320 323 327 329 327 327 328 331
213 215 219 220 220 224 229 233 238 244 250 259 263 269 274 278 280 281 285 289 287 288 289 291 295 299 302 305 302 299 299 301 302 303 302 301 303 310 316 317 318 316 314
215 217 220 221 224 228 234 238 244 249 253 256 263 268 273 276 278 281 285 285 284 286 288 288 292 293 294 296 297 298 296 293 293 294 291 289 288 295 300 305 308 309 308
217 220 223 224 227 231 237 243 248 255 258 262 267 271 276 278 278 280 283 282 284 286 287 288 291 293 294 294 296 296 294 294 292 289 284 282 284 286 289 290 294 297 296